Location: ???? ???? ?????
(31.2680°N, 31.7283°E)
Time: 09:58:45
(UTC+00:00)

Cosmos 1315 Rocket - Pass Details

Date: 13 July 2020
Orbit: 530 x 568 km, 81.2° (Epoch: 07 August)

Event Time Altitude Azimuth Distance (km) Brightness Sun altitude
Rises 18:36:25 0° 356° (N) 2,766 7.1 -18.2°
Reaches altitude 10° 18:38:38 10° 360° (N) 1,868 6.1 -18.5°
Maximum altitude 18:42:43 62° 81° (E) 642 2.9 -19.2°
Enters shadow 18:43:31 50° 131° (SE) 728 3.0 -19.3°
